| time (UTC) | temp F | wind direction | speed MPH | gust MPH | rain 1hr in | rain 24hr in | rain mn in | humidity % | barometer mb |
| 20260504192726 | 67 | 0.0 | 0.0 | 0.00 | 0.02 | 0.02 | 81 | 1020.0 | |
| 20260504192225 | 67 | 0.0 | 0.0 | 0.00 | 0.02 | 0.02 | 80 | 1020.0 | |
| 20260504191723 | 67 | 0.0 | 0.0 | 0.00 | 0.02 | 0.02 | 78 | 1019.9 | |
| 20260504191221 | 69 | 0.0 | 0.0 | 0.00 | 0.02 | 0.02 | 73 | 1019.9 | |
| 20260504190719 | 73 | 0.0 | 0.0 | 0.00 | 0.02 | 0.02 | 64 | 1019.9 | |
| 20260504185716 | 70 | 0.0 | 0.0 | 0.00 | 0.02 | 0.02 | 72 | 1020.0 | |
| 20260504185213 | 67 | 0.0 | 0.0 | 0.00 | 0.02 | 0.02 | 79 | 1020.1 | |
| 20260504184712 | 67 | 0.0 | 0.0 | 0.00 | 0.02 | 0.02 | 78 | 1020.2 | |
| 20260504184210 | 67 | 0.0 | 0.0 | 0.00 | 0.02 | 0.02 | 78 | 1020.3 | |
| 20260504183708 | 68 | 0.0 | 0.0 | 0.00 | 0.02 | 0.02 | 77 | 1020.3 | |
| 20260504183206 | 68 | 0.0 | 0.0 | 0.00 | 0.02 | 0.02 | 76 | 1020.3 | |
| 20260504182704 | 68 | 0.0 | 0.0 | 0.00 | 0.02 | 0.02 | 74 | 1020.2 | |
| 20260504182203 | 69 | 0.0 | 0.0 | 0.00 | 0.02 | 0.02 | 71 | 1020.2 | |
| 20260504181701 | 70 | 0.0 | 0.0 | 0.00 | 0.02 | 0.02 | 70 | 1020.2 | |
| 20260504181159 | 70 | 0.0 | 0.0 | 0.00 | 0.02 | 0.02 | 71 | 1020.1 | |
| 20260504180658 | 70 | 0.0 | 0.0 | 0.00 | 0.02 | 0.02 | 72 | 1020.1 | |
| 20260504180156 | 71 | 0.0 | 0.0 | 0.00 | 0.02 | 0.02 | 69 | 1020.1 | |
| 20260504175654 | 69 | 0.0 | 0.0 | 0.00 | 0.02 | 0.02 | 73 | 1020.0 | |
| 20260504175152 | 71 | 0.0 | 0.0 | 0.00 | 0.02 | 0.02 | 70 | 1020.2 | |
| 20260504174650 | 70 | 0.0 | 0.0 | 0.00 | 0.02 | 0.02 | 76 | 1020.2 | |
| 20260504174148 | 67 | 0.0 | 0.0 | 0.00 | 0.02 | 0.02 | 82 | 1020.3 | |
| 20260504173646 | 67 | 0.0 | 0.0 | 0.00 | 0.02 | 0.02 | 82 | 1020.5 | |
| 20260504173144 | 66 | 0.0 | 0.0 | 0.00 | 0.02 | 0.02 | 83 | 1020.7 | |
| 20260504172643 | 65 | 0.0 | 0.0 | 0.00 | 0.02 | 0.02 | 86 | 1020.8 | |
| 20260504172141 | 64 | 0.0 | 0.0 | 0.00 | 0.02 | 0.02 | 87 | 1020.9 | |
| 20260504171639 | 64 | 0.0 | 0.0 | 0.00 | 0.02 | 0.02 | 87 | 1020.9 | |
| 20260504171138 | 64 | 0.0 | 0.0 | 0.00 | 0.02 | 0.02 | 88 | 1021.0 | |
| 20260504170636 | 64 | 0.0 | 0.0 | 0.00 | 0.02 | 0.02 | 88 | 1021.1 | |
| 20260504170134 | 64 | 0.0 | 0.0 | 0.00 | 0.02 | 0.02 | 86 | 1021.2 | |
| 20260504160113 | 61 | 0.0 | 0.0 | 0.00 | 0.02 | 0.02 | 95 | 1022.4 | |
| 20260504151056 | 60 | 0.0 | 0.0 | 0.00 | 0.04 | 0.02 | 95 | 1023.2 | |
| 20260504150555 | 61 | 0.0 | 0.0 | 0.00 | 0.04 | 0.02 | 93 | 1023.3 | |
| 20260504141034 | 61 | 0.0 | 0.0 | 0.01 | 0.04 | 0.02 | 94 | 1023.6 | |
| 20260504140532 | 61 | 0.0 | 0.0 | 0.01 | 0.04 | 0.02 | 95 | 1023.7 | |
| 20260504130508 | 62 | 0.0 | 0.0 | 0.01 | 0.03 | 0.01 | 96 | 1023.1 | |
| 20260504110419 | 55 | 0.0 | 0.0 | 0.00 | 0.02 | 0.00 | 99 | 1022.8 | |
| 20260504100358 | 54 | 0.0 | 0.0 | 0.00 | 0.02 | 0.00 | 99 | 1022.7 | |
| 20260504081823 | 52 | 0.0 | 0.0 | 0.00 | 0.02 | 0.00 | 99 | 1021.3 | |
| 20260504081321 | 52 | 0.0 | 0.0 | 0.00 | 0.02 | 0.00 | 99 | 1021.1 | |
| 20260504080820 | 51 | 0.0 | 0.0 | 0.00 | 0.02 | 0.00 | 99 | 1020.9 | |
| 20260504080318 | 51 | 0.0 | 0.0 | 0.00 | 0.02 | 0.00 | 99 | 1020.7 | |
| 20260504070300 | 52 | 0.0 | 0.0 | 0.00 | 0.03 | 0.00 | 99 | 1021.1 | |
| 20260504060240 | 52 | 0.0 | 0.0 | 0.00 | 0.03 | 0.00 | 99 | 1020.6 | |
| 20260504050724 | 53 | 0.0 | 0.0 | 0.00 | 0.03 | 0.00 | 99 | 1022.3 | |
| 20260504050222 | 53 | 0.0 | 0.0 | 0.00 | 0.03 | 0.00 | 99 | 1022.2 | |
| 20260504045720 | 53 | 0.0 | 0.0 | 0.00 | 0.03 | 0.00 | 99 | 1022.3 | |
| 20260504045219 | 53 | 0.0 | 0.0 | 0.00 | 0.03 | 0.00 | 99 | 1022.5 | |
| 20260504044717 | 53 | 0.0 | 0.0 | 0.00 | 0.03 | 0.00 | 99 | 1022.4 | |
| 20260504044215 | 53 | 0.0 | 0.0 | 0.00 | 0.03 | 0.00 | 99 | 1022.2 | |
| 20260504043714 | 53 | 0.0 | 0.0 | 0.00 | 0.03 | 0.00 | 99 | 1022.3 | |
| 20260504043212 | 54 | 0.0 | 0.0 | 0.00 | 0.03 | 0.00 | 99 | 1022.4 | |
| 20260504042710 | 54 | 0.0 | 0.0 | 0.00 | 0.03 | 0.00 | 99 | 1022.7 | |
| 20260504042209 | 54 | 0.0 | 0.0 | 0.00 | 0.03 | 0.00 | 99 | 1022.6 | |
| 20260504041707 | 54 | 0.0 | 0.0 | 0.00 | 0.03 | 0.00 | 99 | 1022.6 | |
| 20260504041206 | 54 | 0.0 | 0.0 | 0.00 | 0.03 | 0.00 | 99 | 1022.4 | |
| 20260504040704 | 54 | 0.0 | 0.0 | 0.00 | 0.03 | 0.00 | 99 | 1022.5 | |
| 20260504040203 | 54 | 0.0 | 0.0 | 0.00 | 0.03 | 0.00 | 99 | 1022.8 | |
| 20260504035701 | 54 | 0.0 | 0.0 | 0.00 | 0.03 | 0.00 | 99 | 1022.6 | |
| 20260504035200 | 54 | 0.0 | 0.0 | 0.00 | 0.03 | 0.00 | 99 | 1022.8 | |
| 20260504034658 | 54 | 0.0 | 0.0 | 0.00 | 0.03 | 0.00 | 99 | 1023.1 | |
| 20260504034157 | 54 | 0.0 | 0.0 | 0.00 | 0.03 | 0.00 | 99 | 1023.1 | |
| 20260504033655 | 54 | 0.0 | 0.0 | 0.00 | 0.03 | 0.00 | 99 | 1023.1 | |
| 20260504033152 | 54 | 0.0 | 0.0 | 0.00 | 0.03 | 0.00 | 99 | 1023.0 | |
| 20260504032651 | 54 | 0.0 | 0.0 | 0.00 | 0.03 | 0.00 | 99 | 1023.0 | |
| 20260504032149 | 54 | 0.0 | 0.0 | 0.00 | 0.03 | 0.00 | 99 | 1022.9 | |
| 20260504031647 | 54 | 0.0 | 0.0 | 0.00 | 0.03 | 0.00 | 99 | 1022.8 | |
| 20260504031146 | 53 | 0.0 | 0.0 | 0.00 | 0.03 | 0.00 | 99 | 1022.6 | |
| 20260504030644 | 53 | 0.0 | 0.0 | 0.00 | 0.03 | 0.00 | 99 | 1022.7 | |
| 20260504030142 | 53 | 0.0 | 0.0 | 0.00 | 0.03 | 0.00 | 99 | 1022.9 | |
| 20260504025641 | 53 | 0.0 | 0.0 | 0.00 | 0.03 | 0.03 | 99 | 1023.0 | |
| 20260504025139 | 53 | 0.0 | 0.0 | 0.00 | 0.03 | 0.03 | 99 | 1023.1 | |
| 20260504024638 | 53 | 0.0 | 0.0 | 0.00 | 0.03 | 0.03 | 99 | 1023.3 | |
| 20260504024136 | 53 | 0.0 | 0.0 | 0.00 | 0.03 | 0.03 | 99 | 1023.3 | |
| 20260504023635 | 53 | 0.0 | 0.0 | 0.00 | 0.03 | 0.03 | 99 | 1023.5 | |
| 20260504023133 | 53 | 0.0 | 0.0 | 0.00 | 0.03 | 0.03 | 99 | 1023.5 | |
| 20260504022631 | 53 | 0.0 | 0.0 | 0.00 | 0.03 | 0.03 | 99 | 1023.6 | |
| 20260504022130 | 53 | 0.0 | 0.0 | 0.00 | 0.03 | 0.03 | 99 | 1023.7 | |
| 20260504021628 | 53 | 0.0 | 0.0 | 0.00 | 0.03 | 0.03 | 99 | 1023.7 | |
| 20260504021126 | 53 | 0.0 | 0.0 | 0.00 | 0.03 | 0.03 | 99 | 1023.8 | |
| 20260504020624 | 53 | 0.0 | 0.0 | 0.00 | 0.03 | 0.03 | 99 | 1023.9 | |
| 20260504020123 | 53 | 0.0 | 0.0 | 0.00 | 0.03 | 0.03 | 99 | 1023.9 | |
| 20260504015621 | 53 | 0.0 | 0.0 | 0.00 | 0.03 | 0.03 | 99 | 1023.9 | |
| 20260504015120 | 53 | 0.0 | 0.0 | 0.00 | 0.03 | 0.03 | 99 | 1023.9 | |
| 20260504014619 | 53 | 0.0 | 0.0 | 0.00 | 0.03 | 0.03 | 99 | 1023.9 | |
| 20260504014118 | 53 | 0.0 | 0.0 | 0.00 | 0.03 | 0.03 | 99 | 1023.8 | |
| 20260504013616 | 53 | 0.0 | 0.0 | 0.00 | 0.03 | 0.03 | 99 | 1023.7 | |
| 20260504013114 | 53 | 0.0 | 0.0 | 0.00 | 0.03 | 0.03 | 99 | 1023.7 | |
| 20260504012613 | 53 | 0.0 | 0.0 | 0.00 | 0.03 | 0.03 | 99 | 1023.8 | |
| 20260504012111 | 53 | 0.0 | 0.0 | 0.00 | 0.03 | 0.03 | 99 | 1023.8 | |
| 20260504011609 | 53 | 0.0 | 0.0 | 0.00 | 0.03 | 0.03 | 99 | 1023.7 | |
| 20260504011108 | 53 | 0.0 | 0.0 | 0.00 | 0.03 | 0.03 | 99 | 1023.9 | |
| 20260504010606 | 53 | 0.0 | 0.0 | 0.00 | 0.03 | 0.03 | 99 | 1023.9 | |
| 20260504010104 | 53 | 0.0 | 0.0 | 0.00 | 0.03 | 0.03 | 99 | 1023.8 | |
| 20260504005603 | 53 | 0.0 | 0.0 | 0.00 | 0.03 | 0.03 | 99 | 1023.7 | |
| 20260504005101 | 53 | 0.0 | 0.0 | 0.00 | 0.03 | 0.03 | 99 | 1023.7 | |
| 20260504004559 | 53 | 0.0 | 0.0 | 0.00 | 0.03 | 0.03 | 99 | 1023.7 | |
| 20260504004057 | 53 | 0.0 | 0.0 | 0.00 | 0.03 | 0.03 | 99 | 1023.8 | |
| 20260504003555 | 53 | 0.0 | 0.0 | 0.00 | 0.03 | 0.03 | 99 | 1023.9 | |
| 20260504003053 | 53 | 0.0 | 0.0 | 0.00 | 0.03 | 0.03 | 99 | 1023.8 | |
| 20260504002551 | 53 | 0.0 | 0.0 | 0.00 | 0.03 | 0.03 | 99 | 1023.8 | |
| 20260504002049 | 53 | 0.0 | 0.0 | 0.00 | 0.03 | 0.03 | 99 | 1023.9 | |
| 20260504001547 | 53 | 0.0 | 0.0 | 0.00 | 0.03 | 0.03 | 99 | 1023.9 | |
| 20260504001046 | 53 | 0.0 | 0.0 | 0.00 | 0.03 | 0.03 | 99 | 1023.9 | |
| 20260504000543 | 53 | 0.0 | 0.0 | 0.00 | 0.03 | 0.03 | 99 | 1024.0 | |
| 20260504000041 | 53 | 0.0 | 0.0 | 0.00 | 0.03 | 0.03 | 99 | 1023.9 | |
| 20260503235539 | 53 | 0.0 | 0.0 | 0.00 | 0.03 | 0.03 | 99 | 1024.0 | |
| 20260503235037 | 53 | 0.0 | 0.0 | 0.00 | 0.03 | 0.03 | 99 | 1023.9 | |
| 20260503234536 | 53 | 0.0 | 0.0 | 0.00 | 0.03 | 0.03 | 99 | 1023.8 | |
| 20260503234034 | 53 | 0.0 | 0.0 | 0.00 | 0.03 | 0.03 | 99 | 1023.8 | |
| 20260503233531 | 53 | 0.0 | 0.0 | 0.00 | 0.03 | 0.03 | 99 | 1023.8 | |
| 20260503233030 | 53 | 0.0 | 0.0 | 0.00 | 0.03 | 0.03 | 99 | 1023.8 | |
| 20260503232528 | 53 | 0.0 | 0.0 | 0.00 | 0.03 | 0.03 | 99 | 1023.7 | |
| 20260503232027 | 53 | 0.0 | 0.0 | 0.00 | 0.03 | 0.03 | 99 | 1023.7 | |
| 20260503231524 | 53 | 0.0 | 0.0 | 0.00 | 0.03 | 0.03 | 99 | 1023.6 | |
| 20260503231023 | 53 | 0.0 | 0.0 | 0.00 | 0.03 | 0.03 | 99 | 1023.6 | |
| 20260503230521 | 53 | 0.0 | 0.0 | 0.00 | 0.03 | 0.03 | 99 | 1023.5 | |
| 20260503230019 | 53 | 0.0 | 0.0 | 0.00 | 0.03 | 0.03 | 98 | 1023.5 | |
| 20260503225517 | 53 | 0.0 | 0.0 | 0.00 | 0.03 | 0.03 | 98 | 1023.4 | |
| 20260503225015 | 53 | 0.0 | 0.0 | 0.00 | 0.03 | 0.03 | 98 | 1023.4 | |
| 20260503224513 | 53 | 0.0 | 0.0 | 0.00 | 0.03 | 0.03 | 97 | 1023.4 | |
| 20260503224012 | 53 | 0.0 | 0.0 | 0.00 | 0.03 | 0.03 | 97 | 1023.4 | |
| 20260503223510 | 53 | 0.0 | 0.0 | 0.00 | 0.03 | 0.03 | 97 | 1023.4 | |
| 20260503223008 | 53 | 0.0 | 0.0 | 0.00 | 0.03 | 0.03 | 97 | 1023.4 | |
| 20260503222506 | 53 | 0.0 | 0.0 | 0.00 | 0.03 | 0.03 | 96 | 1023.4 | |
| 20260503222005 | 53 | 0.0 | 0.0 | 0.00 | 0.03 | 0.03 | 96 | 1023.3 | |
| 20260503221503 | 53 | 0.0 | 0.0 | 0.00 | 0.03 | 0.03 | 96 | 1023.3 | |
| 20260503221001 | 53 | 0.0 | 0.0 | 0.00 | 0.03 | 0.03 | 95 | 1023.3 | |
| 20260503220500 | 53 | 0.0 | 0.0 | 0.00 | 0.03 | 0.03 | 95 | 1023.2 | |
| 20260503215958 | 53 | 0.0 | 0.0 | 0.00 | 0.06 | 0.03 | 95 | 1023.2 | |
| 20260503215456 | 53 | 0.0 | 0.0 | 0.00 | 0.06 | 0.03 | 95 | 1023.2 | |
| 20260503214955 | 53 | 0.0 | 0.0 | 0.00 | 0.06 | 0.03 | 95 | 1023.2 | |
| 20260503214453 | 53 | 0.0 | 0.0 | 0.00 | 0.06 | 0.03 | 95 | 1023.2 | |
| 20260503213952 | 53 | 0.0 | 0.0 | 0.00 | 0.06 | 0.03 | 95 | 1023.2 | |
| 20260503213450 | 53 | 0.0 | 0.0 | 0.00 | 0.06 | 0.03 | 95 | 1023.2 | |
| 20260503212948 | 53 | 0.0 | 0.0 | 0.00 | 0.06 | 0.03 | 94 | 1023.3 | |
| 20260503212446 | 53 | 0.0 | 0.0 | 0.00 | 0.06 | 0.03 | 95 | 1023.2 | |
| 20260503211945 | 53 | 0.0 | 0.0 | 0.00 | 0.06 | 0.03 | 95 | 1023.1 | |
| 20260503211443 | 53 | 0.0 | 0.0 | 0.00 | 0.06 | 0.03 | 95 | 1023.1 | |
| 20260503210941 | 53 | 0.0 | 0.0 | 0.00 | 0.06 | 0.03 | 94 | 1023.0 | |
| 20260503210440 | 53 | 0.0 | 0.0 | 0.00 | 0.06 | 0.03 | 95 | 1022.9 | |
| 20260503205938 | 53 | 0.0 | 0.0 | 0.00 | 0.08 | 0.03 | 94 | 1022.9 | |
| 20260503205435 | 53 | 0.0 | 0.0 | 0.00 | 0.08 | 0.03 | 94 | 1022.9 | |
| 20260503204933 | 53 | 0.0 | 0.0 | 0.00 | 0.08 | 0.03 | 94 | 1022.9 | |
| 20260503204432 | 53 | 0.0 | 0.0 | 0.00 | 0.08 | 0.03 | 93 | 1023.0 | |
| 20260503203930 | 53 | 0.0 | 0.0 | 0.00 | 0.08 | 0.03 | 92 | 1023.0 | |
| 20260503203428 | 54 | 0.0 | 0.0 | 0.00 | 0.08 | 0.03 | 91 | 1022.9 | |
| 20260503202926 | 54 | 0.0 | 0.0 | 0.00 | 0.08 | 0.03 | 90 | 1022.8 | |
| 20260503202424 | 55 | 0.0 | 0.0 | 0.00 | 0.08 | 0.03 | 90 | 1022.9 | |
| 20260503201923 | 54 | 0.0 | 0.0 | 0.00 | 0.08 | 0.03 | 91 | 1022.9 | |
| 20260503201420 | 54 | 0.0 | 0.0 | 0.00 | 0.08 | 0.03 | 92 | 1022.9 | |
| 20260503200919 | 54 | 0.0 | 0.0 | 0.00 | 0.08 | 0.03 | 92 | 1022.9 | |
| 20260503200417 | 54 | 0.0 | 0.0 | 0.00 | 0.08 | 0.03 | 94 | 1022.9 | |
| 20260503195916 | 54 | 0.0 | 0.0 | 0.00 | 0.08 | 0.03 | 95 | 1022.9 | |
| 20260503195414 | 54 | 0.0 | 0.0 | 0.00 | 0.08 | 0.03 | 95 | 1023.0 | |
| 20260503194913 | 53 | 0.0 | 0.0 | 0.00 | 0.08 | 0.03 | 95 | 1023.0 | |
| 20260503194411 | 53 | 0.0 | 0.0 | 0.00 | 0.08 | 0.03 | 96 | 1023.0 | |
| 20260503193910 | 53 | 0.0 | 0.0 | 0.00 | 0.08 | 0.03 | 95 | 1023.0 | |
| 20260503193408 | 53 | 0.0 | 0.0 | 0.00 | 0.08 | 0.03 | 95 | 1023.0 | |
| 20260503192906 | 54 | 0.0 | 0.0 | 0.00 | 0.08 | 0.03 | 94 | 1023.1 |